Home > Weather > Foochow > Past weeks

Flag for China Weather for the Past 2 Weeks in Foochow, Fujian, China

Now
48 °F

Light rain. Fog.


Feels Like: 42 °F
Forecast: 37 / 52 °F
Wind: 17 mph from Northeast

Location: Fuzhou Airport

Current Time: Feb 14, 2016 at 2:50:23 PM

Latest Report: Feb 14, 2016 at 2:00 PM


Visibility: 2 mi

Pressure: 30.12 "Hg

Humidity: 100%

Dew point: 48 °F

Location of FoochowLocation

Historic Weather in Foochow — Graph

°F

Foochow Temperature Yesterday

Maximum temperature yesterday: 73 °F (at 2:00 PM)
Minimum temperature yesterday: 63 °F (at 3:00 AM)
Average temperature yesterday: 67 °F

High & Low Weather Summary for the Past Weeks

 TemperatureHumidityPressure
High73 °F (Feb 13, 2:00 PM)100% (Feb 5, 7:00 AM)30.45 "Hg (Feb 5, 7:00 AM)
Low36 °F (Feb 8, 6:00 AM)22% (Feb 8, 2:00 PM)29.80 "Hg (Feb 13, 3:00 PM)
Average52 °F75%30.20 "Hg
* Reported Jan 30 1:00 PM — Feb 14 1:00 PM, Foochow, Weather by CustomWeather, © 2016

Note: Actual official high and low records may vary slightly from our data, if they occured in-between our weather recording intervals... More about our weather records

Advertising

Foochow Weather History for the Previous 24 Hours

 ConditionsComfort  
Time TempWeatherWind HumidityBarometerVisibility
1:00 PM
Sun, Feb 14
50 °FLight rain. Fog.17 mph94%30.12 "Hg3 mi
12:00 PM50 °FLight rain. Fog.17 mph94%30.15 "Hg3 mi
11:00 AM50 °FLight rain. Fog.20 mph100%30.15 "Hg3 mi
10:00 AM50 °FLight rain. Fog.22 mph94%30.15 "Hg2 mi
9:00 AM52 °FLight rain. Fog.20 mph94%30.12 "Hg1 mi
8:00 AM52 °FLight rain. Fog.20 mph94%30.07 "Hg1 mi
7:00 AM52 °FFog.22 mph100%30.04 "Hg1 mi
6:00 AM52 °FFog.22 mph100%30.01 "Hg1 mi
5:00 AM54 °FFog.17 mph94%29.95 "Hg1 mi
4:00 AM54 °FFog.20 mph94%29.95 "Hg1 mi
3:00 AM57 °FFog.15 mph94%29.92 "Hg1 mi
2:00 AM64 °FFog.No wind94%29.89 "Hg1 mi
1:00 AM64 °FFog.1 mph94%29.89 "Hg2 mi
12:00 AM64 °FFog.1 mph94%29.89 "Hg1 mi
11:00 PM
Sat, Feb 13
64 °FFog.3 mph94%29.89 "Hg1 mi
10:00 PM64 °FClear.No wind94%29.89 "Hg4 mi
9:00 PM68 °FClear.6 mph88%29.89 "Hg5 mi
8:00 PM64 °FClear.8 mph94%29.89 "Hg5 mi
7:00 PM64 °FClear.1 mph94%29.86 "Hg10 mi
6:00 PM66 °FPassing clouds.8 mph94%29.86 "HgN/A
5:00 PM73 °FPassing clouds.6 mph74%29.83 "HgN/A
4:00 PM70 °FPassing clouds.6 mph78%29.83 "HgN/A
3:00 PM73 °FPassing clouds.15 mph74%29.80 "HgN/A
2:00 PM73 °FPassing clouds.20 mph74%29.83 "HgN/A
Weather by CustomWeather, © 2016

See weather overviewHow to use our weather pages